Dewpoint
-8 -9 -7 -8 -6 -1 -1 -2 1 -1 -2 0 1 0 -1 -3 -6 -6 -6 -6 -7 -7 -7 -7 -8 -8 -8 -8 -9 -8 -8 -9 -8 -8 -8 -9 -10 -10 -11 -12 -11 -12
-8 -8 -7 -7 -7 -5 -4 -4 -2 -1 -1 -0 1 2 1 -2 -5 -6 -5 -6 -6 -6 -6 -6 -6 -7 -7 -7 -8 -9 -9 -9 -8 -8 -8 -8 -9 -9 -10 -11 -11 -13
-8 -9 -8 -8 -7 -7 -6 -5 -3 -2 -1 -1 -0 1 1 -2 -4 -4 -5 -5 -5 -5 -5 -5 -5 -6 -5 -6 -6 -7 -8 -9 -8 -9 -9 -8 -8 -9 -10 -10 -10 -12
-8 -8 -8 -8 -7 -7 -6 -4 -3 -2 -1 -1 -1 -0 0 -1 -2 -2 -3 -4 -4 -4 -4 -4 -5 -4 -5 -5 -5 -5 -6 -8 -9 -9 -8 -8 -9 -8 -9 -10 -10 -11
-8 -8 -8 -7 -6 -6 -5 -4 -3 -3 -2 -1 -1 -1 -0 0 0 -0 -1 -2 -3 -3 -3 -3 -4 -4 -4 -4 -4 -4 -5 -6 -8 -9 -7 -7 -8 -8 -9 -9 -9 -11
-8 -7 -7 -7 -7 -6 -5 -5 -4 -3 -2 -1 -1 -0 -0 0 0 1 1 1 0 -1 -2 -2 -3 -3 -3 -3 -4 -4 -3 -4 -6 -8 -6 -4 -6 -7 -8 -8 -7 -8
-7 -7 -6 -6 -6 -7 -6 -6 -5 -4 -3 -2 -1 -0 0 0 1 1 1 2 2 1 1 -1 -2 -2 -2 -2 -2 -3 -3 -3 -5 -8 -6 -4 -5 -6 -6 -8 -8 -7
-3 -5 -5 -5 -5 -5 -6 -6 -5 -5 -5 -3 -1 0 1 1 1 1 1 2 2 2 2 2 1 -0 -1 -1 -1 -2 -2 -3 -4 -6 -7 -6 -7 -6 -5 -6 -10 -9
4 2 1 0 -1 -1 -3 -4 -4 -4 -4 -3 -2 0 2 3 3 2 2 2 2 3 3 3 2 2 1 -0 -0 -0 -1 -2 -3 -4 -6 -8 -8 -7 -6 -6 -8 -10
7 5 5 5 5 5 4 2 1 -0 -0 -1 -2 -0 2 4 5 5 4 3 3 3 4 3 3 3 2 1 1 0 -0 -1 -2 -3 -5 -7 -8 -8 -7 -7 -8 -9
8 7 6 7 8 9 8 7 6 5 5 5 4 3 3 5 6 6 5 5 4 4 4 4 3 3 3 2 2 1 0 -0 -1 -3 -4 -6 -8 -8 -8 -8 -8 -8
9 9 8 8 9 9 9 9 9 9 8 8 8 7 6 6 6 6 6 6 5 4 5 4 4 4 3 3 2 2 1 0 -0 -2 -3 -5 -7 -8 -8 -8 -7 -8
6 8 8 8 9 9 8 8 8 9 9 9 9 8 7 7 7 6 6 6 6 5 5 5 4 4 4 3 3 2 1 1 0 -1 -3 -5 -7 -8 -8 -7 -7 -7
-3 -0 0 3 6 7 7 7 7 8 9 9 9 8 8 8 8 6 6 6 6 6 5 5 5 4 4 4 3 2 2 1 1 -1 -3 -5 -7 -7 -7 -7 -7 -7
-7 -7 -8 -7 -4 -2 2 6 8 9 9 9 9 9 8 9 8 7 6 6 6 6 6 5 5 5 4 4 3 3 2 2 1 -1 -3 -5 -6 -7 -6 -6 -6 -6
-11 -10 -10 -9 -9 -10 -9 -3 4 7 9 9 9 9 9 9 8 8 7 7 6 6 6 6 5 5 4 4 3 3 2 1 0 -2 -3 -5 -6 -6 -5 -5 -5 -6
-14 -14 -15 -14 -13 -11 -11 -12 -7 2 6 8 8 8 8 8 8 8 8 7 6 6 6 6 5 5 4 4 3 2 2 1 -1 -3 -4 -5 -5 -4 -4 -4 -4 -5
-13 -13 -12 -12 -15 -16 -13 -12 -13 -8 -1 5 7 7 7 7 7 8 8 7 6 6 6 5 5 5 4 4 3 2 1 -0 -2 -3 -3 -3 -3 -3 -4 -4 -5 -8
-16 -13 -11 -11 -12 -15 -17 -15 -12 -11 -11 -4 4 7 7 7 8 8 7 7 6 6 5 5 5 5 4 4 3 2 0 -1 -2 -2 -2 -2 -3 -3 -3 -5 -8 -14
-14 -13 -14 -16 -15 -14 -15 -14 -9 -7 -11 -7 3 7 7 7 8 7 7 7 6 5 5 5 5 4 4 3 2 1 -0 -1 -1 -1 -2 -2 -2 -3 -5 -9 -15 -20
-8 -9 -13 -15 -15 -15 -15 -13 -10 -7 -7 -4 3 6 6 7 7 7 7 7 6 5 5 5 4 4 3 2 1 -0 -1 -1 -1 -1 -2 -2 -4 -7 -11 -17 -22 -22
-3 -3 -5 -7 -8 -9 -11 -13 -11 -7 -4 -1 3 6 6 6 7 7 7 7 6 5 5 5 4 3 2 1 0 -1 -1 -1 -1 -2 -4 -6 -10 -15 -20 -22 -20 -18
-2 -1 0 -1 -2 -3 -4 -6 -5 -3 -2 1 5 6 5 5 7 7 7 6 6 5 5 4 3 2 1 1 -1 -1 -1 -3 -5 -7 -9 -14 -17 -19 -18 -17 -16 -16
-0 0 1 1 1 1 1 1 0 1 2 4 5 5 5 5 6 6 6 6 5 5 4 3 3 1 0 -1 -1 -2 -3 -6 -11 -12 -14 -16 -15 -13 -12 -12 -12 -12
1 -0 -0 0 1 2 3 3 3 3 4 5 5 4 5 6 7 6 5 4 4 4 3 2 1 -0 -1 -1 -2 -4 -7 -13 -18 -16 -15 -14 -11 -9 -8 -8 -9 -8
1 0 -1 -1 0 1 3 3 3 3 4 4 4 5 6 6 5 5 4 3 3 2 1 -0 -1 -3 -4 -6 -8 -12 -16 -20 -21 -17 -14 -12 -10 -8 -8 -8 -7 -6
Wind_Speed
21 20 18 17 15 13 12 11 10 10 10 9 9 8 8 8 7 6 5 5 4 3 2 2 1 0 1 2 3 3 4 5 5 7 8 8 8 8 7 6 6 5
22 22 20 19 17 16 14 13 12 12 11 11 10 9 10 10 9 8 8 7 6 6 5 4 3 2 2 2 2 2 3 4 5 6 7 9 9 9 10 9 8 7
22 22 22 21 20 18 16 14 14 13 13 13 12 11 12 11 10 9 9 9 8 8 7 7 6 5 4 4 4 4 4 5 5 6 6 7 8 9 10 10 10 9
23 22 22 22 21 20 18 17 16 15 15 15 14 14 13 13 12 11 11 10 10 10 9 9 8 7 7 6 5 6 6 6 6 6 6 7 7 8 9 9 10 9
24 23 23 22 22 22 21 19 18 18 17 16 16 16 16 15 14 13 13 12 12 12 11 11 11 10 9 7 7 7 7 7 8 7 6 7 8 8 9 9 10 10
27 26 25 24 23 23 22 21 20 20 19 18 18 17 17 17 17 16 16 14 14 14 13 13 13 12 11 9 9 9 8 8 9 8 6 6 8 9 9 8 8 10
28 28 27 27 26 25 25 24 23 22 21 21 20 19 19 19 19 19 18 17 16 15 15 15 15 14 13 12 11 11 10 10 11 9 6 6 8 9 10 10 9 9
28 29 29 30 30 29 29 27 26 25 24 23 22 22 21 21 21 21 20 19 18 18 17 17 16 16 15 14 13 14 14 13 13 11 9 9 9 8 8 11 12 11
22 24 25 27 29 30 31 31 30 29 28 28 26 24 24 23 22 22 22 21 20 20 19 19 18 18 17 16 16 16 16 16 15 13 12 12 11 9 8 10 13 13
16 20 21 22 23 24 27 28 29 29 29 30 29 28 27 26 25 25 24 23 23 21 21 21 21 20 19 18 18 17 17 17 16 15 14 14 13 12 11 12 14 14
16 19 19 18 17 17 19 22 23 23 23 25 26 28 29 29 28 26 23 23 23 23 23 23 23 22 21 20 20 20 19 18 18 17 16 16 16 15 15 16 16 17
13 15 15 15 15 15 17 17 17 17 18 18 19 23 27 29 28 27 25 24 24 25 25 25 25 24 23 22 23 23 22 21 21 20 19 19 18 18 18 18 19 19
7 9 12 14 15 17 19 18 18 18 17 16 17 19 24 27 26 26 28 28 28 28 27 27 27 26 24 24 25 25 24 24 23 22 22 21 20 19 19 20 20 20
6 7 9 10 11 15 19 20 21 21 17 15 16 19 22 24 23 24 28 29 29 29 29 28 27 27 26 26 26 26 25 24 24 23 22 22 21 21 21 21 21 22
9 10 10 10 10 12 14 15 16 17 16 15 16 17 19 20 20 23 27 29 29 30 28 26 26 27 27 28 27 26 26 24 24 24 23 22 22 22 22 22 23 24
13 13 13 13 12 12 13 13 12 12 14 15 16 17 17 18 19 21 24 25 26 27 25 25 28 31 31 30 28 27 26 24 24 24 23 22 22 22 22 23 24 26
14 15 15 15 15 14 15 15 14 13 12 13 15 17 18 18 19 20 21 20 20 23 25 29 34 35 33 31 28 26 24 23 23 23 22 22 21 22 23 24 26 28
14 15 16 16 16 15 15 17 17 17 15 13 13 15 17 19 20 20 20 20 22 26 31 34 37 36 32 30 28 25 24 22 22 22 21 20 21 22 24 25 27 29
16 15 16 16 17 17 17 17 18 19 19 17 14 13 14 17 19 18 17 19 24 30 34 35 36 35 33 30 27 25 23 21 21 21 20 20 21 23 25 27 28 29
17 17 17 17 17 18 18 18 18 18 20 18 14 12 15 17 18 17 17 20 26 32 34 36 36 35 32 29 26 24 22 20 19 20 19 21 23 25 27 28 28 28
18 18 18 18 18 18 19 19 19 19 20 18 14 13 15 16 16 17 19 23 29 32 35 36 35 32 29 26 23 21 19 18 19 19 20 23 25 26 27 28 28 29
17 17 18 18 18 19 19 20 20 21 20 18 14 13 14 15 16 18 22 25 29 33 35 35 32 28 25 22 19 18 16 17 19 20 21 24 25 26 27 28 28 29
18 17 17 18 18 19 19 20 20 20 19 16 13 13 15 17 18 19 22 26 30 33 34 32 28 24 21 18 17 16 14 16 17 17 19 22 24 25 26 27 28 29
19 18 17 18 18 18 18 19 19 19 17 14 13 15 18 20 19 19 22 27 31 31 30 26 23 20 17 15 15 15 14 15 15 16 18 21 22 23 24 25 28 30
21 21 21 20 20 19 18 19 18 17 18 17 16 16 19 20 20 21 24 28 29 28 25 21 18 15 13 13 14 14 15 16 16 17 18 19 19 20 22 24 26 27
22 23 24 24 23 20 19 18 19 20 22 20 18 18 19 20 20 24 28 29 26 22 19 16 13 11 11 11 12 14 16 16 16 16 17 18 19 21 23 25 25 22
Wind_Direction
206 209 214 220 220 218 222 221 221 231 229 217 215 216 215 219 223 223 226 236 242 242 243 243 242 116 72 61 57 42 27 26 17 7 6 5 4 5 4 4 5 0
209 212 215 220 223 225 225 224 227 235 235 229 221 216 220 228 231 229 232 241 250 257 262 265 272 286 314 349 5 8 0 356 356 356 356 356 355 354 355 358 356 359
214 216 218 221 225 230 230 228 230 234 238 239 232 223 228 240 241 237 238 243 249 256 263 269 275 284 295 310 326 330 329 329 331 335 341 347 347 346 348 351 350 353
220 220 222 225 227 231 233 232 234 235 238 242 241 235 237 244 246 244 246 247 252 258 262 266 271 277 284 295 310 313 311 310 311 317 321 328 335 340 341 342 343 346
227 226 227 228 230 233 235 235 236 238 239 241 244 243 243 245 246 248 251 252 256 262 265 268 270 271 276 285 294 301 304 302 304 309 311 316 325 330 334 339 339 342
234 234 234 235 235 237 238 240 241 243 244 244 244 245 246 247 247 249 252 254 256 261 265 267 269 270 273 277 283 290 293 289 295 304 303 306 315 321 328 335 338 340
241 241 242 242 243 243 244 245 246 249 251 251 250 249 247 248 249 249 251 253 255 258 261 264 266 268 270 273 276 280 282 282 289 295 287 285 300 311 319 323 330 334
247 247 248 249 250 251 251 251 251 252 254 255 255 254 250 249 248 249 250 251 254 256 257 259 261 263 265 267 268 271 277 280 284 285 277 278 290 300 306 313 322 328
246 246 250 253 255 256 256 256 256 256 257 258 259 258 255 251 248 248 249 249 251 252 253 254 256 259 263 264 264 267 272 275 277 277 275 279 287 292 295 303 313 320
237 238 245 250 252 254 256 256 256 257 259 261 262 261 258 253 248 247 247 246 246 247 248 251 255 259 263 263 261 263 266 271 274 274 273 275 279 283 288 296 304 310
243 239 241 243 244 246 248 252 253 253 255 258 260 259 256 252 247 243 238 236 240 244 246 251 254 256 260 260 259 261 262 266 270 272 273 274 275 280 286 291 298 304
253 247 245 244 243 241 239 245 250 248 247 250 251 250 253 254 251 246 241 234 235 241 245 248 250 251 254 255 255 258 260 262 266 269 270 271 273 278 284 289 295 301
258 259 259 254 250 246 244 247 253 252 247 244 241 244 253 257 253 249 247 241 238 240 241 242 244 245 246 247 250 254 256 260 264 266 267 268 270 274 278 285 291 296
275 277 276 270 266 261 257 254 253 252 248 242 240 242 251 255 250 246 245 243 241 239 234 231 234 236 238 240 243 247 250 256 260 262 264 266 270 274 278 284 290 295
284 281 281 283 285 281 273 262 252 248 244 238 236 238 246 249 245 242 241 240 239 235 226 222 224 226 231 234 236 240 246 252 257 258 260 263 268 275 280 286 293 298
290 286 282 281 281 283 283 278 266 251 240 234 237 239 242 244 241 240 240 235 232 227 217 213 219 223 228 233 236 240 245 249 253 255 257 261 268 275 283 290 295 299
296 293 290 286 281 279 279 278 276 266 249 240 241 242 241 241 239 237 237 230 221 217 217 222 228 231 234 238 240 242 245 248 252 255 259 265 272 279 286 292 297 300
295 292 291 289 286 282 277 274 273 271 264 254 245 244 245 242 236 231 230 224 218 222 229 234 236 236 237 238 239 242 246 250 253 257 263 270 277 283 289 294 298 301
297 292 288 286 285 284 280 275 271 268 267 262 250 245 243 235 230 226 221 217 221 228 233 234 234 234 235 236 239 243 246 248 253 259 267 275 282 287 292 296 299 301
299 295 291 288 284 281 279 276 272 267 267 261 248 239 238 231 224 219 215 219 226 229 230 229 229 230 231 233 237 240 243 247 255 264 274 281 286 291 294 297 299 300
297 295 293 291 286 280 275 272 268 266 265 259 243 236 238 232 221 219 223 228 229 228 227 226 224 225 227 230 233 238 243 252 262 273 282 287 290 294 296 298 299 299
292 290 289 288 284 280 275 271 267 263 261 254 241 232 233 228 220 222 229 231 228 225 224 221 219 220 223 226 233 241 250 263 274 284 290 292 296 298 299 299 300 300
287 286 285 283 281 278 275 271 267 261 256 248 235 230 233 230 223 225 230 229 224 220 217 216 214 216 219 225 236 249 260 274 284 290 293 296 299 300 301 302 301 301
284 282 280 279 278 276 272 268 265 261 252 238 227 229 232 227 221 222 223 220 215 210 208 209 210 212 219 230 244 257 267 278 287 291 293 297 300 301 302 303 304 305
283 282 281 280 275 271 270 268 262 251 236 227 227 231 230 224 220 217 209 203 201 199 198 201 205 211 225 239 252 266 275 281 287 290 294 299 301 303 303 304 308 309
283 283 284 282 275 270 267 262 253 243 237 236 238 236 231 223 212 202 193 187 187 189 191 196 205 217 233 248 262 273 279 284 289 295 300 302 303 304 305 307 309 306
Height
1523 1524 1525 1526 1528 1529 1530 1531 1532 1532 1532 1533 1534 1534 1534 1534 1534 1535 1535 1535 1535 1536 1536 1536 1536 1536 1536 1536 1537 1537 1537 1536 1536 1536 1536 1535 1535 1535 1535 1535 1535 1535
1521 1522 1524 1525 1526 1527 1528 1529 1530 1531 1531 1532 1533 1533 1533 1533 1534 1534 1535 1535 1535 1535 1535 1536 1536 1536 1536 1536 1536 1536 1536 1536 1536 1536 1535 1535 1535 1534 1534 1534 1534 1534
1519 1521 1522 1523 1524 1525 1526 1527 1528 1529 1530 1531 1532 1532 1532 1533 1533 1534 1534 1534 1534 1534 1535 1535 1535 1535 1535 1535 1535 1535 1535 1535 1535 1535 1535 1535 1535 1534 1534 1534 1534 1534
1517 1519 1520 1521 1522 1523 1524 1526 1527 1528 1529 1529 1530 1531 1531 1532 1532 1533 1533 1534 1534 1534 1534 1534 1534 1534 1534 1534 1534 1534 1534 1534 1534 1535 1535 1534 1534 1534 1534 1533 1533 1533
1515 1517 1518 1519 1520 1521 1522 1523 1525 1526 1527 1528 1529 1530 1530 1531 1531 1532 1532 1533 1533 1533 1533 1533 1533 1533 1533 1533 1534 1533 1533 1533 1533 1534 1534 1533 1533 1533 1533 1533 1533 1532
1513 1515 1516 1517 1518 1519 1520 1521 1523 1524 1525 1526 1527 1528 1528 1529 1529 1530 1531 1531 1532 1532 1532 1532 1532 1532 1532 1532 1532 1532 1532 1532 1532 1532 1533 1532 1532 1532 1532 1532 1532 1532
1511 1512 1514 1515 1516 1517 1518 1520 1521 1522 1523 1524 1524 1525 1526 1527 1527 1528 1528 1529 1530 1530 1531 1531 1531 1531 1531 1531 1531 1531 1531 1531 1531 1531 1532 1531 1531 1531 1531 1531 1531 1531
1508 1510 1511 1513 1514 1515 1516 1517 1518 1519 1520 1521 1522 1523 1524 1524 1525 1525 1526 1527 1527 1528 1528 1529 1529 1529 1529 1530 1530 1529 1529 1529 1529 1529 1530 1530 1530 1530 1530 1529 1529 1530
1505 1506 1507 1509 1510 1511 1512 1514 1515 1516 1517 1518 1519 1520 1521 1522 1522 1522 1523 1523 1524 1525 1525 1526 1526 1527 1527 1527 1527 1527 1527 1527 1527 1527 1527 1528 1528 1528 1528 1528 1528 1528
1502 1502 1504 1505 1506 1508 1508 1510 1511 1512 1513 1514 1516 1517 1517 1518 1519 1519 1519 1520 1521 1522 1522 1523 1523 1524 1524 1524 1524 1524 1524 1524 1524 1525 1525 1525 1525 1526 1526 1526 1526 1526
1499 1499 1500 1501 1502 1504 1505 1506 1507 1508 1508 1509 1510 1512 1512 1514 1515 1516 1517 1518 1518 1519 1520 1520 1520 1521 1521 1521 1521 1521 1522 1522 1522 1522 1522 1522 1523 1523 1523 1523 1523 1523
1498 1497 1497 1498 1500 1501 1502 1504 1505 1505 1505 1505 1506 1507 1508 1509 1512 1514 1516 1516 1515 1516 1516 1516 1516 1517 1518 1518 1518 1518 1519 1519 1519 1519 1520 1519 1520 1520 1520 1520 1520 1520
1497 1497 1496 1496 1497 1498 1499 1500 1502 1503 1503 1503 1503 1503 1504 1505 1507 1510 1511 1512 1512 1511 1512 1512 1513 1513 1514 1515 1515 1515 1516 1516 1517 1517 1517 1517 1517 1517 1517 1517 1517 1517
1495 1496 1496 1495 1495 1495 1495 1496 1497 1499 1500 1500 1500 1500 1500 1500 1502 1505 1505 1506 1508 1508 1509 1510 1510 1510 1511 1511 1511 1511 1512 1514 1514 1514 1514 1514 1515 1515 1514 1514 1514 1514
1493 1494 1494 1494 1494 1493 1493 1493 1493 1495 1495 1496 1496 1497 1497 1496 1498 1500 1500 1500 1503 1504 1506 1507 1508 1508 1508 1508 1508 1508 1509 1511 1511 1512 1512 1512 1512 1512 1512 1512 1511 1511
1492 1492 1492 1492 1492 1492 1491 1491 1491 1491 1492 1492 1492 1493 1494 1494 1494 1496 1496 1497 1499 1501 1503 1504 1504 1503 1504 1504 1506 1506 1507 1508 1508 1509 1509 1509 1510 1510 1509 1509 1508 1508
1489 1489 1489 1489 1489 1489 1489 1489 1489 1489 1489 1489 1490 1490 1491 1491 1491 1493 1494 1495 1498 1499 1500 1499 1499 1500 1501 1502 1504 1504 1505 1506 1506 1506 1506 1507 1507 1507 1506 1506 1505 1505
1487 1487 1486 1486 1486 1486 1487 1487 1487 1487 1487 1487 1487 1487 1487 1488 1489 1490 1490 1492 1494 1495 1494 1495 1496 1498 1500 1500 1501 1502 1503 1504 1504 1504 1504 1504 1504 1504 1503 1503 1502 1502
1484 1484 1484 1484 1484 1484 1484 1484 1484 1484 1484 1484 1485 1484 1484 1485 1486 1487 1487 1489 1490 1490 1490 1491 1494 1495 1497 1498 1499 1500 1501 1502 1501 1501 1502 1502 1501 1501 1500 1500 1499 1498
1481 1481 1481 1481 1481 1481 1481 1481 1481 1481 1481 1482 1482 1482 1482 1482 1483 1484 1485 1485 1486 1486 1487 1488 1490 1492 1494 1495 1496 1497 1498 1498 1498 1499 1499 1499 1498 1498 1497 1496 1496 1495
1479 1478 1478 1478 1478 1478 1478 1478 1478 1478 1478 1478 1479 1480 1480 1480 1480 1481 1481 1482 1482 1482 1484 1486 1488 1490 1491 1493 1494 1494 1495 1496 1496 1496 1496 1496 1495 1494 1494 1493 1492 1491
1476 1476 1475 1475 1475 1475 1475 1475 1475 1475 1475 1475 1476 1477 1477 1477 1477 1478 1478 1478 1479 1480 1482 1484 1486 1488 1489 1491 1492 1492 1493 1494 1493 1494 1493 1492 1492 1491 1490 1489 1488 1487
1473 1473 1472 1472 1472 1472 1472 1472 1472 1472 1472 1472 1473 1473 1473 1473 1474 1474 1474 1475 1476 1478 1480 1482 1484 1486 1487 1488 1489 1490 1491 1492 1492 1492 1491 1490 1489 1488 1487 1486 1485 1483
1470 1470 1470 1469 1469 1469 1468 1468 1468 1469 1469 1469 1469 1469 1469 1469 1470 1471 1472 1473 1475 1477 1479 1481 1483 1484 1485 1486 1487 1488 1489 1490 1490 1490 1489 1488 1487 1486 1484 1483 1481 1479
1467 1466 1466 1466 1466 1465 1465 1465 1465 1465 1465 1465 1465 1466 1466 1466 1467 1468 1470 1472 1475 1477 1478 1480 1482 1483 1484 1485 1485 1486 1487 1488 1488 1488 1486 1485 1484 1483 1481 1480 1478 1476
1463 1462 1462 1462 1462 1462 1462 1462 1461 1461 1461 1462 1462 1463 1463 1464 1464 1466 1468 1471 1474 1476 1478 1479 1481 1482 1483 1483 1484 1484 1484 1485 1486 1485 1483 1482 1481 1480 1478 1476 1475 1474